Regional Weather Roundup
Issued by NWS Mt. Holly, NJ

Home | Current Version | Previous Version | Text Only | Print | Product List | Glossary On
Versions: 1 2 3 4 5 6 7 8 9 10 11 12 13 14 15 16 17 18 19 20 21 22 23 24 25 26 27 28 29 30 31 32 33 34 35 36 37 38 39 40 41 42 43 44 45 46 47 48 49 50
000
ASUS41 KPHI 271610
RWRPHI

REGIONAL WEATHER ROUNDUP
NATIONAL WEATHER SERVICE MOUNT HOLLY NJ
1100 AM EST THU NOV 27 2014

NOTE:  "FAIR" INDICATES FEW OR NO CLOUDS BELOW 12,000 FEET WITH NO
SIGNIFICANT WEATHER AND/OR OBSTRUCTIONS TO VISIBILITY.

 * = STATION DOES NOT REPORT PRECIPITATION (E.G. RAIN, SNOW, ETC.)
        OR FOG.

NJZ015>026-271700-
SOUTHERN NEW JERSEY

CITY           SKY/WX    TMP DP  RH WIND       PRES   REMARKS
POMONA         PTSUNNY   40  35  83 NW7       30.02F
RIO GRANDE*    CLOUDY    39  30  70 NW8       30.01F WCI  34
MILLVILLE      MOSUNNY   40  32  73 CALM      30.02F
WRIGHTSTOWN    CLOUDY    38  33  82 NW9       30.00S WCI  31
MOUNT HOLLY    CLOUDY    37  30  75 W7        30.03F WCI  32
TRENTON        CLOUDY    36  30  79 NW7       30.02S WCI  30

$$
NJZ001>014-271700-
NORTHERN NEW JERSEY

CITY           SKY/WX    TMP DP  RH WIND       PRES   REMARKS
SUSSEX         LGT SNOW  33  29  85 CALM      30.00S FOG
ANDOVER*         N/A     33  29  85 N5        30.00S WCI  29
MORRISTOWN     CLOUDY    36  32  87 NW6       30.01  WCI  31
NEWARK         LGT SNOW  36  32  87 W7        30.01S FOG     WCI  30
TETERBORO      LGT SNOW  36  30  80 NW5       30.00S FOG     WCI  32
CALDWELL       LGT SNOW  34  30  85 W6        30.01S FOG     WCI  29
SOMERVILLE     LGT SNOW  35  32  88 W3        30.00F FOG
ALLAIRE*       CLOUDY    37  28  70 W7        30.00S WCI  32
TOMS RIVER*    CLOUDY    37  34  87 CALM      30.01F

$$
PAZ043-044-047-054-055-060>062-066>071-271700-
EASTERN PENNSYLVANIA

CITY           SKY/WX    TMP DP  RH WIND       PRES   REMARKS
PHILADELPHIA   PTSUNNY   39  29  67 NW8       30.04F WCI  33
NORTH PHILA    CLOUDY    39  31  72 NW8       30.04F WCI  33
BLUE BELL      CLOUDY    36  32  87 CALM      30.01F
DOYLESTOWN     CLOUDY    33  30  88 W6        30.01S WCI  28
QUAKERTOWN*    CLOUDY    34  28  80 NW6       30.02F WCI  29
POTTSTOWN      CLOUDY    35  28  75 NW9       30.04S WCI  28
LANCASTER      CLOUDY    35  26  69 NW10      30.04S WCI  27
COATESVILLE    PTSUNNY   36  30  80 NW7       30.02F WCI  30
READING        CLOUDY    37  26  64 NW8       30.03S WCI  31
ALLENTOWN      CLOUDY    35  26  69 NW8       30.02S WCI  29
MOUNT POCONO   LGT SNOW  28  22  78 NW13      29.93S WCI  17
HAZLETON       CLOUDY    30  28  93 NW9       29.99F WCI  22
WILKES BARRE   LGT SNOW  31  26  82 W14       30.00F WCI  21

$$
DEZALL-MDZ008-012-015-019-020-271700-
DELAWARE AND EASTERN MARYLAND

CITY           SKY/WX    TMP DP  RH WIND       PRES   REMARKS
WILMINGTON     CLOUDY    38  30  73 W9        30.05S WCI  31
DOVER          PTSUNNY   40  33  75 W8        30.03F WCI  35
GEORGETOWN     PTSUNNY   44  32  62 NW6       30.05S
EASTON         CLOUDY    41  34  75 N5        30.09F
PATUXENT       CLOUDY    42  33  70 NW6       30.06S
OCEAN CITY     MOSUNNY   44  34  67 N7        30.05S
WALLOPS ISLAND CLOUDY    43  36  76 NW6       30.06S
CAMBRIDGE      MOSUNNY   41  32  70 N6        30.05S
SALISBURY      PTSUNNY   45  33  63 NW7       30.05S

$$
PAZ001-021-NYZ056-072-MDZ011-DCZ001-271700-
OTHER NEARBY LOCATIONS

CITY           SKY/WX    TMP DP  RH WIND       PRES   REMARKS
HARRISBURG     CLOUDY    35  28  75 NW9       30.05R WCI  28
STATE COLLEGE  LGT SNOW  32  28  86 CALM      30.02F FOG
WILLIAMSPORT   CLOUDY    33  28  81 W6        30.04S WCI  28
BINGHAMTON     LGT SNOW  27  24  89 VRB6      29.96S FOG     WCI  20
NEW YORK CITY  LGT SNOW  35  31  85 VRB3      30.02F FOG
BALTIMORE      PTSUNNY   43  32  65 VRB5      30.04F
WASHINGTON DC  PTSUNNY   44  34  67 N3        30.07S

$$



USA.gov is the U.S. government's official web portal to all federal, state and local government web resources and services.